sat.trackr.live / text

‹ back to catalog

SKYSAT-B

NORAD 40072 · 2014-037D

PAYLOAD ACTIVE UNKNOWN

§ Identity

Operator
Country
US
Launch date
2014-07-08
Launch site
TYMSC
Launch vehicle
Mass (kg)
RCS (m²)
0.36

Purposes: earth_obs

External: N2YO · Heavens-Above · Gunter

§ Orbital elements

Epoch: 2026-09-20T03:12:56.412000Z

Period
96.76 min
Inclination
98.3957°
Eccentricity
0.0005124
Mean motion
14.88226333 rev/d
Perigee alt
599.9 km
Apogee alt
607.1 km
Semi-major
6,981.6 km
B*
1.0099e-4
RAAN
227.5786°
Arg perigee
344.3307°
Mean anomaly
15.7748°
Rev number
66,008

§ Raw data

SKYSAT-B1 40072U 14037D   26263.13398625  .00000870  00000+0  10099-3 0  99902 40072  98.3957 227.5786 0005124 344.3307  15.7748 14.88226333660081

JSON: /api/v1/satellites/40072 · /tle

For live sub-satellite position, see the globe view (requires WebGL).

§ Visibility from observer

Set your observer location to see the next 7 days of passes ≥ 10°. The values pass through the URL so the page stays shareable.

No JS? Fill the form by hand. The geolocation button needs JavaScript.